"Pseudo-MPEC" for ST26H84

Created 2026 Aug 26 0:35:12 UT using Find_Orb

Click here for an explanation of pseudo-MPECs

 
 Astrometry: 
     ST26H84* C2026 08 23.37254821 00 31.783+19 26 59.41   ~8OFo 19.42GVNEOCPU68
     ST26H84  C2026 08 23.37588921 00 34.478+19 23 47.42   ~8OFo 19.42GVNEOCPU68
     ST26H84  C2026 08 23.39450921 00 49.943+19 05 57.90   ~8OFo 19.88GVNEOCPU74
     ST26H84  C2026 08 23.39765021 00 52.598+19 02 56.38   ~8OFo 19.88GVNEOCPU74
     ST26H84  C2026 08 23.45879721 01 44.112+18 05 05.05   ~8OFo 19.56GVNEOCPU74
     ST26H84  C2026 08 23.46213921 01 46.995+18 01 57.01   ~8OFo 19.56GVNEOCPU74

Station data:
(U68) JPL SynTrack Robotic Telescope, Auberry  (N37.070387 W119.412990)
   US/California.  Observers N. Saini, C. Zhai, R. Trahan, M. Zhan, M. Shao.
   0.28-m f/2.2 Schmidt + CCD.
(U74) JPL SynTrack Robotic Telescope 2, Auberry  (N37.070341 W119.412800)
   US/California.  Observers N. Saini, C. Zhai, R. Trahan, M. Zhan, M. Shao.
   0.36-m f/2.2 Schmidt.

Orbital elements:  ST26H84
   Perihelion 2026 Jun 6.005094 +/- 2.15 TT =  0:07:20.1 (JD 2461197.505094)
Epoch 2026 Aug 23.0 TT = JDT 2461275.5   Earth MOID: 0.0155   Ve: 0.0336
M  75.395720547 +/- 3.0             (J2000 ecliptic)             AutoNEOCP
n   0.966674931 +/- 0.0131          Peri.   67.030101 +/- 0.52
a   1.013014694 +/- 0.00917         Node   153.392140 +/- 0.18
e   0.29223348 +/- 0.0231           Incl.    9.066362 +/- 1.0
P   1.020/372.404d         H 27.17  G  0.15   U  9.8
q 0.716977884 +/- 0.0171    Q 1.309051504 +/- 0.035
From 6 observations 2026 Aug. 23 (2.2 hr); mean residual 0".41
Residuals in arcseconds: 
260823 U68  .45+  .28-    260823 U74  .23-  .76+    260823 U74  .14-  .05+    
260823 U68  .53-  .27+    260823 U74  .36+  .77-    260823 U74  .12+  .03-    

Ephemerides (geocentric):
Date (UTC) HH   RA             Dec           delta  r     elong  mag " sig PA
---- --------  ------------   ------------  ------ ------ -----  --- --------
2026 08 26 01  21 26 17.379   -07 44 30.77  .02898 1.0389 167.0 20.3  549  12
2026 08 26 02  21 26 31.377   -07 59 30.15  .02918 1.0391 167.1 20.3  558  12
2026 08 26 03  21 26 45.199   -08 14 16.80  .02939 1.0393 167.1 20.3  566  12
2026 08 26 04  21 26 58.847   -08 28 50.95  .02960 1.0395 167.2 20.3  574  12
2026 08 26 05  21 27 12.326   -08 43 12.84  .02981 1.0397 167.3 20.4  582  11
2026 08 26 06  21 27 25.638   -08 57 22.68  .03002 1.0399 167.3 20.4  590  11
2026 08 26 07  21 27 38.786   -09 11 20.69  .03023 1.0401 167.4 20.4  598  11
2026 08 26 08  21 27 51.773   -09 25 07.09  .03044 1.0403 167.4 20.4  605  11
2026 08 26 09  21 28 04.603   -09 38 42.09  .03065 1.0405 167.4 20.4  613  11
2026 08 26 10  21 28 17.278   -09 52 05.88  .03086 1.0407 167.5 20.4  621  11
2026 08 26 11  21 28 29.802   -10 05 18.68  .03108 1.0409 167.5 20.4  628  10
2026 08 26 12  21 28 42.176   -10 18 20.68  .03129 1.0411 167.5 20.5  636  10
2026 08 26 13  21 28 54.404   -10 31 12.07  .03150 1.0413 167.5 20.5  643  10
2026 08 26 14  21 29 06.487   -10 43 53.04  .03172 1.0415 167.6 20.5  650  10
2026 08 26 15  21 29 18.430   -10 56 23.78  .03193 1.0417 167.6 20.5  658  10
2026 08 26 16  21 29 30.234   -11 08 44.46  .03214 1.0419 167.6 20.5  665  10
2026 08 26 17  21 29 41.902   -11 20 55.28  .03236 1.0421 167.6 20.5  672  10
2026 08 26 18  21 29 53.436   -11 32 56.39  .03258 1.0423 167.6 20.5  679   9
2026 08 26 19  21 30 04.838   -11 44 47.98  .03279 1.0425 167.5 20.6  686   9
2026 08 26 20  21 30 16.111   -11 56 30.21  .03301 1.0427 167.5 20.6  693   9
2026 08 26 21  21 30 27.257   -12 08 03.24  .03323 1.0429 167.5 20.6  700   9
2026 08 26 22  21 30 38.278   -12 19 27.24  .03344 1.0431 167.5 20.6  706   9
2026 08 26 23  21 30 49.177   -12 30 42.35  .03366 1.0433 167.5 20.6  713   9
2026 08 27 00  21 30 59.955   -12 41 48.75  .03388 1.0435 167.4 20.6  720   9
2026 08 27 01  21 31 10.614   -12 52 46.57  .03410 1.0437 167.4 20.7  726   9
2026 08 27 02  21 31 21.157   -13 03 35.97  .03432 1.0439 167.4 20.7  733   8
2026 08 27 03  21 31 31.586   -13 14 17.08  .03454 1.0441 167.3 20.7  739   8
2026 08 27 04  21 31 41.901   -13 24 50.06  .03475 1.0443 167.3 20.7  745   8
2026 08 27 05  21 31 52.106   -13 35 15.04  .03497 1.0445 167.3 20.7  752   8
2026 08 27 06  21 32 02.202   -13 45 32.15  .03520 1.0447 167.2 20.7  758   8
2026 08 27 07  21 32 12.191   -13 55 41.54  .03542 1.0449 167.2 20.7  764   8
2026 08 27 08  21 32 22.074   -14 05 43.33  .03564 1.0451 167.1 20.8  770   8
2026 08 27 09  21 32 31.854   -14 15 37.65  .03586 1.0453 167.1 20.8  776   8
2026 08 27 10  21 32 41.531   -14 25 24.62  .03608 1.0455 167.0 20.8  782   8
2026 08 27 11  21 32 51.108   -14 35 04.37  .03630 1.0457 167.0 20.8  788   8
2026 08 27 12  21 33 00.587   -14 44 37.02  .03653 1.0459 166.9 20.8  794   8
2026 08 27 13  21 33 09.968   -14 54 02.69  .03675 1.0461 166.9 20.8  800   7
2026 08 27 14  21 33 19.253   -15 03 21.49  .03697 1.0463 166.8 20.9  806   7
2026 08 27 15  21 33 28.444   -15 12 33.54  .03719 1.0465 166.7 20.9  811   7
2026 08 27 16  21 33 37.543   -15 21 38.94  .03742 1.0467 166.7 20.9  817   7
2026 08 27 17  21 33 46.550   -15 30 37.81  .03764 1.0469 166.6 20.9  822   7
2026 08 27 18  21 33 55.467   -15 39 30.26  .03787 1.0471 166.5 20.9  828   7
2026 08 27 19  21 34 04.296   -15 48 16.38  .03809 1.0473 166.5 20.9  833   7
2026 08 27 20  21 34 13.038   -15 56 56.28  .03832 1.0475 166.4 20.9  839   7
2026 08 27 21  21 34 21.694   -16 05 30.06  .03854 1.0477 166.3 21.0  844   7
2026 08 27 22  21 34 30.266   -16 13 57.82  .03877 1.0479 166.3 21.0  849   7
2026 08 27 23  21 34 38.754   -16 22 19.66  .03899 1.0481 166.2 21.0  854   7
2026 08 28 00  21 34 47.161   -16 30 35.67  .03922 1.0483 166.1 21.0  860   7